,,PA_Meas_PMT16A,,PR_Meas_QMR101_102,,RH_Meas_QMH101,,SR_Meas_QMS101,,TA_Meas_QMH101,,GenWind,,GenWind,
time,status,PA,status,PR,status,RH,status,SR,status,TA,status,DirAvg,status,SpdAvg,
2013-08-01, 00:00:04,VALID,917.781,VALID,0,VALID,87.5473,VALID,0,VALID,20.1903,VALID,22,VALID,0,
2013-08-01, 00:01:04,VALID,917.807,VALID,0,VALID,87.7303,VALID,0,VALID,20.1708,VALID,22,VALID,0,
2013-08-01, 00:02:04,VALID,917.777,VALID,0,VALID,87.9666,VALID,0,VALID,20.1693,VALID,22,VALID,0,
2013-08-01, 00:03:04,VALID,917.767,VALID,0,VALID,88.1648,VALID,0,VALID,20.1513,VALID,22,VALID,0,
2013-08-01, 00:04:04,VALID,917.745,VALID,0,VALID,88.3478,VALID,0,VALID,20.1708,VALID,38,VALID,0,
2013-08-01, 00:05:04,VALID,917.774,VALID,0,VALID,88.4316,VALID,0,VALID,20.1498,VALID,33,VALID,0,
2013-08-01, 00:06:04,VALID,917.777,VALID,0,VALID,88.3783,VALID,0,VALID,20.1903,VALID,35,VALID,0,
2013-08-01, 00:07:04,VALID,917.748,VALID,0,VALID,88.4316,VALID,0,VALID,20.1498,VALID,358,VALID,0,
2013-08-01, 00:08:04,VALID,917.731,VALID,0,VALID,88.3783,VALID,0,VALID,20.1708,VALID,358,VALID,0,
2013-08-01, 00:09:04,VALID,917.722,VALID,0,VALID,88.3325,VALID,0,VALID,20.1513,VALID,358,VALID,0,
2013-08-01, 00:10:04,VALID,917.718,VALID,0,VALID,88.6603,VALID,0,VALID,20.1318,VALID,358,VALID,0,
2013-08-01, 00:11:04,VALID,917.691,VALID,0,VALID,88.7137,VALID,0,VALID,20.1318,VALID,359,VALID,0,
2013-08-01, 00:12:04,VALID,917.684,VALID,0,VALID,88.7975,VALID,0,VALID,20.1123,VALID,359,VALID,0,
2013-08-01, 00:13:04,VALID,917.639,VALID,0,VALID,88.5688,VALID,0,VALID,20.1123,VALID,54,VALID,0,
2013-08-01, 00:14:04,VALID,917.637,VALID,0,VALID,88.6222,VALID,0,VALID,20.0733,VALID,54,VALID,0,
2013-08-01, 00:15:04,VALID,917.625,VALID,0,VALID,88.6222,VALID,0,VALID,20.0733,VALID,54,VALID,0,
2013-08-01, 00:16:04,VALID,917.56,VALID,0,VALID,88.6146,VALID,0,VALID,20.0928,VALID,54,VALID,0,
2013-08-01, 00:17:04,VALID,917.552,VALID,0,VALID,88.5155,VALID,0,VALID,20.1123,VALID,54,VALID,0,
2013-08-01, 00:18:04,VALID,917.567,VALID,0,VALID,88.5917,VALID,0,VALID,20.0928,VALID,54,VALID,0,
2013-08-01, 00:19:04,VALID,917.579,VALID,0,VALID,88.7442,VALID,0,VALID,20.0928,VALID,54,VALID,0,
2013-08-01, 00:20:04,VALID,917.55,VALID,0,VALID,88.5079,VALID,0,VALID,20.0928,VALID,54,VALID,0,
2013-08-01, 00:21:04,VALID,917.491,VALID,0,VALID,88.5917,VALID,0,VALID,20.1123,VALID,70,VALID,0,
2013-08-01, 00:22:04,VALID,917.505,VALID,0,VALID,88.7671,VALID,0,VALID,20.1334,VALID,35,VALID,0,
2013-08-01, 00:23:04,VALID,917.509,VALID,0,VALID,88.4545,VALID,0,VALID,20.1108,VALID,17,VALID,0,
2013-08-01, 00:24:04,VALID,917.441,VALID,0,VALID,88.2487,VALID,0,VALID,20.1513,VALID,27,VALID,0,
2013-08-01, 00:25:04,VALID,917.433,VALID,0,VALID,88.0581,VALID,0,VALID,20.1513,VALID,21,VALID,0,
2013-08-01, 00:26:04,VALID,917.434,VALID,0,VALID,87.8751,VALID,0.107441,VALID,20.2083,VALID,21,VALID,0,
2013-08-01, 00:27:04,VALID,917.399,VALID,0,VALID,87.593,VALID,0.107441,VALID,20.2668,VALID,25,VALID,0,
2013-08-01, 00:28:04,VALID,917.358,VALID,0,VALID,87.4482,VALID,0,VALID,20.2863,VALID,34,VALID,0,
2013-08-01, 00:29:04,VALID,917.334,VALID,0,VALID,87.4101,VALID,0,VALID,20.3464,VALID,34,VALID,0,
2013-08-01, 00:30:04,VALID,917.336,VALID,0,VALID,87.1814,VALID,0.107441,VALID,20.3448,VALID,36,VALID,0,
2013-08-01, 00:31:04,VALID,917.354,VALID,0,VALID,86.8155,VALID,0.107441,VALID,20.3253,VALID,39,VALID,0,
2013-08-01, 00:32:04,VALID,917.33,VALID,0,VALID,87.2195,VALID,0,VALID,20.3448,VALID,6,VALID,0,
2013-08-01, 00:33:04,VALID,917.315,VALID,0,VALID,86.9374,VALID,0,VALID,20.3253,VALID,38,VALID,0,
2013-08-01, 00:34:04,VALID,917.335,VALID,0,VALID,86.9298,VALID,0,VALID,20.3643,VALID,38,VALID,0,
2013-08-01, 00:35:04,VALID,917.305,VALID,0,VALID,87.0061,VALID,0,VALID,20.4049,VALID,38,VALID,0,
2013-08-01, 00:36:04,VALID,917.314,VALID,0,VALID,87.3415,VALID,0,VALID,20.3838,VALID,38,VALID,0,
2013-08-01, 00:37:04,VALID,917.307,VALID,0,VALID,87.311,VALID,0.107441,VALID,20.3838,VALID,38,VALID,0,
2013-08-01, 00:38:04,VALID,917.308,VALID,0,VALID,87.5778,VALID,0.107441,VALID,20.3448,VALID,38,VALID,0,
2013-08-01, 00:39:04,VALID,917.27,VALID,0,VALID,87.5092,VALID,0,VALID,20.3448,VALID,36,VALID,0,
2013-08-01, 00:40:04,VALID,917.27,VALID,0,VALID,87.4101,VALID,0.107441,VALID,20.3058,VALID,36,VALID,0,
2013-08-01, 00:41:04,VALID,917.236,VALID,0,VALID,87.0823,VALID,0,VALID,20.3074,VALID,7,VALID,0,
2013-08-01, 00:42:04,VALID,917.249,VALID,0,VALID,87.1738,VALID,0,VALID,20.3659,VALID,6,VALID,0,
2013-08-01, 00:43:04,VALID,917.235,VALID,0,VALID,86.6172,VALID,0,VALID,20.3464,VALID,3,VALID,0,
2013-08-01, 00:44:04,VALID,917.285,VALID,0,VALID,86.6935,VALID,0,VALID,20.3659,VALID,348,VALID,0,
2013-08-01, 00:45:04,VALID,917.247,VALID,0,VALID,86.7468,VALID,0,VALID,20.3464,VALID,348,VALID,0,
2013-08-01, 00:46:04,VALID,917.247,VALID,0,VALID,86.7697,VALID,0,VALID,20.3253,VALID,348,VALID,0,
2013-08-01, 00:47:04,VALID,917.242,VALID,0,VALID,86.7164,VALID,0,VALID,20.3464,VALID,342,VALID,0,
2013-08-01, 00:48:05,VALID,917.265,VALID,0,VALID,86.4114,VALID,0,VALID,20.3269,VALID,349,VALID,0,
2013-08-01, 00:49:05,VALID,917.248,VALID,0,VALID,86.7468,VALID,0,VALID,20.3058,VALID,352,VALID,0,
2013-08-01, 00:50:05,VALID,917.225,VALID,0,VALID,86.9374,VALID,0,VALID,20.3464,VALID,352,VALID,0,
2013-08-01, 00:51:05,VALID,917.198,VALID,0,VALID,86.9756,VALID,0,VALID,20.3464,VALID,352,VALID,0,
2013-08-01, 00:52:05,VALID,917.222,VALID,0,VALID,86.8155,VALID,0,VALID,20.3854,VALID,352,VALID,0,
2013-08-01, 00:53:05,VALID,917.142,VALID,0,VALID,86.7468,VALID,0,VALID,20.3854,VALID,357,VALID,0,
2013-08-01, 00:54:05,VALID,917.113,VALID,0,VALID,86.7011,VALID,0,VALID,20.3659,VALID,4,VALID,0,
2013-08-01, 00:55:05,VALID,917.053,VALID,0,VALID,87.5168,VALID,0,VALID,20.3854,VALID,4,VALID,0,
2013-08-01, 00:56:05,VALID,917.038,VALID,0,VALID,87.2576,VALID,0.107441,VALID,20.3838,VALID,4,VALID,0,
2013-08-01, 00:57:05,VALID,917.045,VALID,0,VALID,87.4025,VALID,0,VALID,20.3448,VALID,4,VALID,0,
2013-08-01, 00:58:05,VALID,917.038,VALID,0,VALID,87.4787,VALID,0,VALID,20.3253,VALID,4,VALID,0,
2013-08-01, 00:59:05,VALID,916.986,VALID,0,VALID,87.3567,VALID,0.107441,VALID,20.3058,VALID,4,VALID,0,
2013-08-01, 01:00:05,VALID,916.965,VALID,0,VALID,87.5244,VALID,0.107441,VALID,20.2863,VALID,317,VALID,0,
2013-08-01, 01:01:05,VALID,916.978,VALID,0,VALID,87.0213,VALID,0,VALID,20.2668,VALID,316,VALID,0,
2013-08-01, 01:02:05,VALID,916.933,VALID,0,VALID,86.9374,VALID,0.107441,VALID,20.2863,VALID,316,VALID,0,
2013-08-01, 01:03:05,VALID,916.975,VALID,0,VALID,86.7926,VALID,0.107441,VALID,20.3058,VALID,316,VALID,0,
2013-08-01, 01:04:05,VALID,916.941,VALID,0,VALID,86.9527,VALID,0.107441,VALID,20.3659,VALID,316,VALID,0,
2013-08-01, 01:05:05,VALID,916.943,VALID,0,VALID,86.4877,VALID,0,VALID,20.3448,VALID,316,VALID,0,
2013-08-01, 01:06:05,VALID,916.859,VALID,0,VALID,86.1522,VALID,0,VALID,20.3448,VALID,286,VALID,0,
2013-08-01, 01:07:05,VALID,916.859,VALID,0,VALID,86.0912,VALID,0.107441,VALID,20.3659,VALID,265,VALID,0,
2013-08-01, 01:08:05,VALID,916.823,VALID,0,VALID,86.0379,VALID,0.107441,VALID,20.3643,VALID,264,VALID,0,
2013-08-01, 01:09:05,VALID,916.822,VALID,0,VALID,85.7787,VALID,0.107441,VALID,20.3838,VALID,263,VALID,0,
2013-08-01, 01:10:05,VALID,916.807,VALID,0,VALID,85.6033,VALID,0.107441,VALID,20.4033,VALID,263,VALID,0,
2013-08-01, 01:11:05,VALID,916.772,VALID,0,VALID,85.5957,VALID,0,VALID,20.4244,VALID,277,VALID,0,
2013-08-01, 01:12:05,VALID,916.782,VALID,0,VALID,85.428,VALID,0,VALID,20.4423,VALID,242,VALID,0,
2013-08-01, 01:13:05,VALID,916.813,VALID,0,VALID,85.5728,VALID,0,VALID,20.4634,VALID,260,VALID,0,
2013-08-01, 01:14:05,VALID,916.794,VALID,0,VALID,85.7024,VALID,0,VALID,20.4618,VALID,260,VALID,0,
2013-08-01, 01:15:05,VALID,916.807,VALID,0,VALID,85.6796,VALID,0,VALID,20.4439,VALID,260,VALID,0,
2013-08-01, 01:16:05,VALID,916.845,VALID,0,VALID,85.7024,VALID,0,VALID,20.4439,VALID,265,VALID,0,
2013-08-01, 01:17:05,VALID,916.866,VALID,0,VALID,85.4966,VALID,0,VALID,20.4439,VALID,237,VALID,0,
2013-08-01, 01:18:05,VALID,916.866,VALID,0,VALID,85.4356,VALID,0,VALID,20.4634,VALID,238,VALID,0,
2013-08-01, 01:19:05,VALID,916.88,VALID,0,VALID,85.428,VALID,0,VALID,20.4634,VALID,264,VALID,0,
2013-08-01, 01:20:05,VALID,916.889,VALID,0,VALID,85.6186,VALID,0,VALID,20.4829,VALID,264,VALID,0,
2013-08-01, 01:21:05,VALID,916.861,VALID,0,VALID,85.8092,VALID,0,VALID,20.4634,VALID,264,VALID,0,
2013-08-01, 01:22:05,VALID,916.842,VALID,0,VALID,85.8168,VALID,0,VALID,20.4845,VALID,264,VALID,0,
2013-08-01, 01:23:05,VALID,916.887,VALID,0,VALID,85.9769,VALID,0,VALID,20.4423,VALID,264,VALID,0,
2013-08-01, 01:24:05,VALID,916.874,VALID,0,VALID,86.076,VALID,0,VALID,20.5024,VALID,264,VALID,0,
2013-08-01, 01:25:05,VALID,916.85,VALID,0,VALID,86.1598,VALID,0,VALID,20.4829,VALID,264,VALID,0,
2013-08-01, 01:26:05,VALID,916.82,VALID,0,VALID,86.663,VALID,0,VALID,20.5024,VALID,264,VALID,0,
2013-08-01, 01:27:05,VALID,916.813,VALID,0,VALID,86.7392,VALID,0,VALID,20.5024,VALID,264,VALID,0,
2013-08-01, 01:28:05,VALID,916.781,VALID,0,VALID,86.4343,VALID,0,VALID,20.4829,VALID,264,VALID,0,
2013-08-01, 01:29:05,VALID,916.81,VALID,0,VALID,86.076,VALID,0,VALID,20.4634,VALID,264,VALID,0,
2013-08-01, 01:30:05,VALID,916.802,VALID,0,VALID,85.7406,VALID,0,VALID,20.4634,VALID,264,VALID,0,
2013-08-01, 01:31:05,VALID,916.792,VALID,0,VALID,85.771,VALID,0,VALID,20.4423,VALID,264,VALID,0,
2013-08-01, 01:32:05,VALID,916.767,VALID,0,VALID,85.893,VALID,0,VALID,20.4634,VALID,264,VALID,0,
2013-08-01, 01:33:05,VALID,916.762,VALID,0,VALID,86.5029,VALID,0,VALID,20.4634,VALID,264,VALID,0,
2013-08-01, 01:34:05,VALID,916.777,VALID,0,VALID,86.4877,VALID,0,VALID,20.4439,VALID,264,VALID,0,
2013-08-01, 01:35:05,VALID,916.732,VALID,0,VALID,86.8536,VALID,0,VALID,20.4244,VALID,264,VALID,0,
2013-08-01, 01:36:05,VALID,916.743,VALID,0,VALID,86.8917,VALID,0,VALID,20.4049,VALID,264,VALID,0,
2013-08-01, 01:37:05,VALID,916.755,VALID,0,VALID,86.7773,VALID,0,VALID,20.4244,VALID,264,VALID,0,
2013-08-01, 01:38:05,VALID,916.717,VALID,0,VALID,87.2576,VALID,0,VALID,20.4049,VALID,264,VALID,0,
2013-08-01, 01:39:05,VALID,916.682,VALID,0,VALID,87.6159,VALID,0,VALID,20.4244,VALID,264,VALID,0,
2013-08-01, 01:40:05,VALID,916.657,VALID,0,VALID,87.6617,VALID,0,VALID,20.3464,VALID,264,VALID,0,
2013-08-01, 01:41:05,VALID,916.628,VALID,0,VALID,87.6922,VALID,0,VALID,20.2879,VALID,264,VALID,0,
2013-08-01, 01:42:05,VALID,916.617,VALID,0,VALID,88.0733,VALID,0,VALID,20.2278,VALID,264,VALID,0,
2013-08-01, 01:43:05,VALID,916.596,VALID,0,VALID,88.3249,VALID,0,VALID,20.2083,VALID,264,VALID,0,
2013-08-01, 01:44:05,VALID,916.608,VALID,0,VALID,88.546,VALID,0,VALID,20.2293,VALID,264,VALID,0,
2013-08-01, 01:45:05,VALID,916.575,VALID,0,VALID,88.7213,VALID,0,VALID,20.2684,VALID,264,VALID,0,
2013-08-01, 01:46:05,VALID,916.57,VALID,0,VALID,88.2944,VALID,0,VALID,20.2473,VALID,264,VALID,0,
2013-08-01, 01:47:05,VALID,916.585,VALID,0,VALID,87.9818,VALID,0,VALID,20.1888,VALID,264,VALID,0,
2013-08-01, 01:48:05,VALID,916.563,VALID,0,VALID,88.2029,VALID,0,VALID,20.2098,VALID,264,VALID,0,
2013-08-01, 01:49:05,VALID,916.513,VALID,0,VALID,88.0276,VALID,0,VALID,20.1708,VALID,264,VALID,0,
2013-08-01, 01:50:05,VALID,916.499,VALID,0,VALID,88.6146,VALID,0,VALID,20.1903,VALID,264,VALID,0,
2013-08-01, 01:51:05,VALID,916.452,VALID,0,VALID,88.9653,VALID,0,VALID,20.1903,VALID,264,VALID,0,
2013-08-01, 01:52:05,VALID,916.467,VALID,0,VALID,88.9043,VALID,0,VALID,20.1513,VALID,264,VALID,0,
2013-08-01, 01:53:05,VALID,916.452,VALID,0,VALID,88.4926,VALID,0,VALID,20.1123,VALID,264,VALID,0,
2013-08-01, 01:54:05,VALID,916.442,VALID,0,VALID,88.3097,VALID,0,VALID,20.1318,VALID,264,VALID,0,
2013-08-01, 01:55:05,VALID,916.426,VALID,0,VALID,88.5079,VALID,0,VALID,20.1318,VALID,264,VALID,0,
2013-08-01, 01:56:05,VALID,916.394,VALID,0,VALID,88.2258,VALID,0,VALID,20.1318,VALID,264,VALID,0,
2013-08-01, 01:57:05,VALID,916.341,VALID,0,VALID,87.4482,VALID,0,VALID,20.1513,VALID,262,VALID,0,
2013-08-01, 01:58:05,VALID,916.331,VALID,0,VALID,87.7226,VALID,0,VALID,20.1888,VALID,262,VALID,0,
2013-08-01, 01:59:05,VALID,916.326,VALID,0,VALID,87.8294,VALID,0,VALID,20.2504,VALID,262,VALID,0,
2013-08-01, 02:00:05,VALID,916.326,VALID,0,VALID,87.5168,VALID,0,VALID,20.2098,VALID,262,VALID,0,
2013-08-01, 02:01:05,VALID,916.315,VALID,0,VALID,87.1128,VALID,0,VALID,20.2504,VALID,262,VALID,0,
2013-08-01, 02:02:05,VALID,916.324,VALID,0,VALID,86.9451,VALID,0,VALID,20.2293,VALID,262,VALID,0,
2013-08-01, 02:03:05,VALID,916.335,VALID,0,VALID,86.7468,VALID,0,VALID,20.2293,VALID,251,VALID,0,
2013-08-01, 02:04:05,VALID,916.297,VALID,0,VALID,86.6706,VALID,0,VALID,20.2293,VALID,251,VALID,0,
2013-08-01, 02:05:05,VALID,916.262,VALID,0,VALID,86.5868,VALID,0,VALID,20.2098,VALID,247,VALID,0,
2013-08-01, 02:06:05,VALID,916.277,VALID,0,VALID,86.6325,VALID,0,VALID,20.2293,VALID,240,VALID,0,
2013-08-01, 02:07:05,VALID,916.243,VALID,0,VALID,86.6554,VALID,0,VALID,20.2098,VALID,240,VALID,0,
2013-08-01, 02:08:05,VALID,916.213,VALID,0,VALID,86.7926,VALID,0,VALID,20.2098,VALID,240,VALID,0,
2013-08-01, 02:09:05,VALID,916.188,VALID,0,VALID,86.846,VALID,0,VALID,20.1693,VALID,240,VALID,0,
2013-08-01, 02:10:05,VALID,916.151,VALID,0,VALID,87.0594,VALID,0,VALID,20.1513,VALID,242,VALID,0,
2013-08-01, 02:11:05,VALID,916.132,VALID,0,VALID,86.8764,VALID,0,VALID,20.1303,VALID,250,VALID,0,
2013-08-01, 02:12:05,VALID,916.083,VALID,0,VALID,86.6554,VALID,0,VALID,20.1513,VALID,252,VALID,0,
2013-08-01, 02:13:05,VALID,916.084,VALID,0,VALID,86.7697,VALID,0,VALID,20.1303,VALID,253,VALID,0,
2013-08-01, 02:14:05,VALID,916.095,VALID,0,VALID,86.7087,VALID,0,VALID,20.1708,VALID,254,VALID,0,
2013-08-01, 02:15:05,VALID,916.082,VALID,0,VALID,86.5791,VALID,0,VALID,20.1708,VALID,254,VALID,0,
2013-08-01, 02:16:05,VALID,916.096,VALID,0,VALID,86.8155,VALID,0,VALID,20.1708,VALID,254,VALID,0,
2013-08-01, 02:17:05,VALID,916.031,VALID,0,VALID,87.1204,VALID,0,VALID,20.1513,VALID,254,VALID,0,
2013-08-01, 02:18:05,VALID,916.045,VALID,0,VALID,87.4177,VALID,0,VALID,20.1708,VALID,254,VALID,0,
2013-08-01, 02:19:05,VALID,916.049,VALID,0,VALID,87.6464,VALID,0,VALID,20.1513,VALID,254,VALID,0,
2013-08-01, 02:20:05,VALID,916.043,VALID,0,VALID,87.6083,VALID,0,VALID,20.1318,VALID,254,VALID,0,
2013-08-01, 02:21:05,VALID,916.009,VALID,0,VALID,87.7836,VALID,0,VALID,20.0928,VALID,254,VALID,0,
2013-08-01, 02:22:05,VALID,916.013,VALID,0,VALID,87.9895,VALID,0,VALID,20.0523,VALID,23,VALID,0,
2013-08-01, 02:23:05,VALID,916.038,VALID,0,VALID,88.1114,VALID,0,VALID,20.0163,VALID,23,VALID,0,
2013-08-01, 02:24:05,VALID,916.009,VALID,0,VALID,88.3097,VALID,0,VALID,19.9563,VALID,305,VALID,0,
2013-08-01, 02:25:05,VALID,915.963,VALID,0,VALID,88.5079,VALID,0,VALID,19.9173,VALID,236,VALID,0,
2013-08-01, 02:26:05,VALID,915.971,VALID,0,VALID,88.7671,VALID,0,VALID,19.8768,VALID,235,VALID,0,
2013-08-01, 02:27:05,VALID,915.93,VALID,0,VALID,88.9424,VALID,0,VALID,19.8978,VALID,235,VALID,0,
2013-08-01, 02:28:05,VALID,915.952,VALID,0,VALID,88.7823,VALID,0,VALID,19.8393,VALID,129,VALID,0,
2013-08-01, 02:29:05,VALID,915.911,VALID,0,VALID,88.9881,VALID,0,VALID,19.8408,VALID,146,VALID,0,
2013-08-01, 02:30:05,VALID,915.888,VALID,0,VALID,89.2778,VALID,0,VALID,19.8003,VALID,146,VALID,0,
2013-08-01, 02:31:05,VALID,915.879,VALID,0,VALID,89.6056,VALID,0,VALID,19.7613,VALID,146,VALID,0,
2013-08-01, 02:32:05,VALID,915.862,VALID,0,VALID,89.3998,VALID,0,VALID,19.7028,VALID,47,VALID,0,
2013-08-01, 02:33:05,VALID,915.855,VALID,0,VALID,89.6666,VALID,0,VALID,19.6833,VALID,62,VALID,0,
2013-08-01, 02:34:05,VALID,915.872,VALID,0,VALID,89.9716,VALID,0,VALID,19.6443,VALID,120,VALID,0,
2013-08-01, 02:35:05,VALID,915.9,VALID,0,VALID,90.3527,VALID,0,VALID,19.6443,VALID,120,VALID,0,
2013-08-01, 02:36:05,VALID,915.879,VALID,0,VALID,90.429,VALID,0,VALID,19.6263,VALID,120,VALID,0,
2013-08-01, 02:37:05,VALID,915.905,VALID,0,VALID,90.4061,VALID,0,VALID,19.5663,VALID,120,VALID,0,
2013-08-01, 02:38:05,VALID,915.892,VALID,0,VALID,90.3451,VALID,0,VALID,19.5273,VALID,35,VALID,0,
2013-08-01, 02:39:05,VALID,915.901,VALID,0,VALID,90.5052,VALID,0,VALID,19.4883,VALID,35,VALID,0,
2013-08-01, 02:40:05,VALID,915.862,VALID,0,VALID,90.5357,VALID,0,VALID,19.5093,VALID,35,VALID,0,
2013-08-01, 02:41:05,VALID,915.907,VALID,0,VALID,90.4213,VALID,0.107441,VALID,19.4673,VALID,35,VALID,0,
2013-08-01, 02:42:05,VALID,915.855,VALID,0,VALID,90.307,VALID,0,VALID,19.4478,VALID,35,VALID,0,
2013-08-01, 02:43:05,VALID,915.846,VALID,0,VALID,90.3604,VALID,0,VALID,19.4673,VALID,35,VALID,0,
2013-08-01, 02:44:05,VALID,915.857,VALID,0,VALID,90.2917,VALID,0,VALID,19.4688,VALID,35,VALID,0,
2013-08-01, 02:45:05,VALID,915.841,VALID,0,VALID,90.2917,VALID,0,VALID,19.4673,VALID,35,VALID,0,
2013-08-01, 02:46:05,VALID,915.852,VALID,0,VALID,90.0478,VALID,0,VALID,19.4868,VALID,35,VALID,0,
2013-08-01, 02:47:05,VALID,915.85,VALID,0,VALID,89.8191,VALID,0.107441,VALID,19.4673,VALID,66,VALID,0,
2013-08-01, 02:48:05,VALID,915.792,VALID,0,VALID,89.8877,VALID,0,VALID,19.4673,VALID,65,VALID,0,
2013-08-01, 02:49:05,VALID,915.807,VALID,0,VALID,89.842,VALID,0,VALID,19.4283,VALID,58,VALID,0,
2013-08-01, 02:50:05,VALID,915.782,VALID,0,VALID,89.9944,VALID,0,VALID,19.3893,VALID,55,VALID,0,
2013-08-01, 02:51:05,VALID,915.766,VALID,0,VALID,90.1545,VALID,0,VALID,19.3713,VALID,55,VALID,0,
2013-08-01, 02:52:05,VALID,915.756,VALID,0,VALID,90.2536,VALID,0,VALID,19.3308,VALID,131,VALID,0,
2013-08-01, 02:53:05,VALID,915.688,VALID,0,VALID,90.2155,VALID,0,VALID,19.3698,VALID,87,VALID,0,
2013-08-01, 02:54:05,VALID,915.721,VALID,0,VALID,90.0402,VALID,0,VALID,19.3908,VALID,87,VALID,0,
2013-08-01, 02:55:05,VALID,915.734,VALID,0,VALID,89.6819,VALID,0,VALID,19.4298,VALID,321,VALID,0,
2013-08-01, 02:56:05,VALID,915.735,VALID,0,VALID,89.0186,VALID,0,VALID,19.5078,VALID,346,VALID,0,
2013-08-01, 02:57:05,VALID,915.737,VALID,0,VALID,88.5079,VALID,0,VALID,19.5663,VALID,89,VALID,0,
2013-08-01, 02:58:05,VALID,915.773,VALID,0,VALID,87.9056,VALID,0,VALID,19.6053,VALID,240,VALID,0,
2013-08-01, 02:59:05,VALID,915.735,VALID,0,VALID,87.3186,VALID,0,VALID,19.7028,VALID,289,VALID,0,
2013-08-01, 03:00:05,VALID,915.724,VALID,0,VALID,86.9908,VALID,0,VALID,19.7808,VALID,278,VALID,0,
2013-08-01, 03:01:05,VALID,915.687,VALID,0,VALID,86.7621,VALID,0,VALID,19.8603,VALID,34,VALID,0,
2013-08-01, 03:02:05,VALID,915.657,VALID,0,VALID,86.6325,VALID,0,VALID,19.8588,VALID,173,VALID,0,
2013-08-01, 03:03:05,VALID,915.673,VALID,0,VALID,86.419,VALID,0,VALID,19.8798,VALID,222,VALID,0,
2013-08-01, 03:04:05,VALID,915.673,VALID,0,VALID,86.5791,VALID,0,VALID,19.8978,VALID,212,VALID,0,
2013-08-01, 03:05:05,VALID,915.712,VALID,0,VALID,86.5868,VALID,0,VALID,19.9368,VALID,206,VALID,0,
2013-08-01, 03:06:05,VALID,915.666,VALID,0,VALID,85.7787,VALID,0,VALID,19.9368,VALID,283,VALID,0,
2013-08-01, 03:07:05,VALID,915.675,VALID,0,VALID,84.9096,VALID,0,VALID,20.0148,VALID,243,VALID,0,
2013-08-01, 03:08:05,VALID,915.657,VALID,0,VALID,84.5437,VALID,0,VALID,20.1123,VALID,221,VALID,0,
2013-08-01, 03:09:05,VALID,915.663,VALID,0,VALID,84.8562,VALID,0,VALID,20.1318,VALID,28,VALID,0,
2013-08-01, 03:10:05,VALID,915.638,VALID,0,VALID,84.9782,VALID,0,VALID,20.1334,VALID,125,VALID,0,
2013-08-01, 03:11:05,VALID,915.615,VALID,0,VALID,84.9706,VALID,0,VALID,20.0928,VALID,147,VALID,0,
2013-08-01, 03:12:05,VALID,915.615,VALID,0,VALID,85.4356,VALID,0,VALID,20.1334,VALID,90,VALID,0,
2013-08-01, 03:13:05,VALID,915.645,VALID,0,VALID,85.5424,VALID,0,VALID,20.0538,VALID,81,VALID,0,
2013-08-01, 03:14:05,VALID,915.641,VALID,0,VALID,85.489,VALID,0,VALID,20.0553,VALID,109,VALID,0,
2013-08-01, 03:15:05,VALID,915.621,VALID,0,VALID,85.7329,VALID,0,VALID,20.0358,VALID,109,VALID,0,
2013-08-01, 03:16:05,VALID,915.694,VALID,0,VALID,86.0531,VALID,0,VALID,19.9953,VALID,42,VALID,0,
2013-08-01, 03:17:05,VALID,915.66,VALID,0,VALID,86.076,VALID,0,VALID,19.9758,VALID,358,VALID,0,
2013-08-01, 03:18:05,VALID,915.695,VALID,0,VALID,86.2208,VALID,0,VALID,19.9953,VALID,3,VALID,0,
2013-08-01, 03:19:05,VALID,915.695,VALID,0,VALID,86.5029,VALID,0,VALID,19.9968,VALID,353,VALID,0,
2013-08-01, 03:20:05,VALID,915.672,VALID,0,VALID,86.6325,VALID,0,VALID,19.9173,VALID,29,VALID,0,
2013-08-01, 03:21:05,VALID,915.701,VALID,0,VALID,86.846,VALID,0,VALID,19.9188,VALID,19,VALID,0,
2013-08-01, 03:22:05,VALID,915.72,VALID,0,VALID,87.0061,VALID,0,VALID,19.8993,VALID,30,VALID,0,
2013-08-01, 03:23:05,VALID,915.733,VALID,0,VALID,87.1814,VALID,0,VALID,19.8393,VALID,30,VALID,0,
2013-08-01, 03:24:05,VALID,915.694,VALID,0,VALID,87.3872,VALID,0,VALID,19.8408,VALID,30,VALID,0,
2013-08-01, 03:25:05,VALID,915.696,VALID,0,VALID,87.5702,VALID,0,VALID,19.7808,VALID,7,VALID,0,
2013-08-01, 03:26:05,VALID,915.704,VALID,0,VALID,87.5854,VALID,0.107441,VALID,19.7418,VALID,16,VALID,0,
2013-08-01, 03:27:05,VALID,915.674,VALID,0,VALID,87.4253,VALID,0.107441,VALID,19.7208,VALID,12,VALID,0,
2013-08-01, 03:28:05,VALID,915.659,VALID,0,VALID,87.1738,VALID,0,VALID,19.7403,VALID,23,VALID,0,
2013-08-01, 03:29:04,VALID,915.628,VALID,0,VALID,87.1204,VALID,0,VALID,19.7808,VALID,1,VALID,0,
2013-08-01, 03:30:04,VALID,915.641,VALID,0,VALID,87.1661,VALID,0.107441,VALID,19.7793,VALID,20,VALID,0,
2013-08-01, 03:31:04,VALID,915.607,VALID,0,VALID,87.311,VALID,0.107441,VALID,19.8003,VALID,13,VALID,0,
2013-08-01, 03:32:04,VALID,915.595,VALID,0,VALID,87.3948,VALID,0,VALID,19.7598,VALID,346,VALID,0,
2013-08-01, 03:33:04,VALID,915.51,VALID,0,VALID,86.8002,VALID,0,VALID,19.7598,VALID,167,VALID,0,
2013-08-01, 03:34:04,VALID,915.507,VALID,0,VALID,86.4114,VALID,0,VALID,19.7988,VALID,31,VALID,0,
2013-08-01, 03:35:04,VALID,915.464,VALID,0,VALID,86.3657,VALID,0.107441,VALID,19.8588,VALID,17,VALID,0,
2013-08-01, 03:36:04,VALID,915.478,VALID,0,VALID,86.1751,VALID,0.107441,VALID,19.8978,VALID,28,VALID,0,
2013-08-01, 03:37:04,VALID,915.458,VALID,0,VALID,86.2666,VALID,0,VALID,19.8978,VALID,44,VALID,0,
2013-08-01, 03:38:04,VALID,915.482,VALID,0,VALID,86.3733,VALID,0.107441,VALID,19.8963,VALID,34,VALID,0,
2013-08-01, 03:39:04,VALID,915.461,VALID,0,VALID,86.2208,VALID,0,VALID,19.8768,VALID,24,VALID,0,
2013-08-01, 03:40:04,VALID,915.436,VALID,0,VALID,85.8397,VALID,0,VALID,19.8963,VALID,29,VALID,0,
2013-08-01, 03:41:04,VALID,915.481,VALID,0,VALID,85.9311,VALID,0,VALID,19.8993,VALID,31,VALID,0,
2013-08-01, 03:42:04,VALID,915.451,VALID,0,VALID,85.8778,VALID,0,VALID,19.8783,VALID,29,VALID,0,
2013-08-01, 03:43:04,VALID,915.389,VALID,0,VALID,85.3136,VALID,0,VALID,19.8783,VALID,352,VALID,0,
2013-08-01, 03:44:04,VALID,915.34,VALID,0,VALID,85.5195,VALID,0,VALID,19.8993,VALID,32,VALID,0,
2013-08-01, 03:45:04,VALID,915.309,VALID,0,VALID,85.4432,VALID,0,VALID,19.8978,VALID,24,VALID,0,
2013-08-01, 03:46:04,VALID,915.281,VALID,0,VALID,85.4204,VALID,0,VALID,19.9173,VALID,24,VALID,0,
2013-08-01, 03:47:04,VALID,915.247,VALID,0,VALID,85.5195,VALID,0,VALID,19.9383,VALID,28,VALID,0,
2013-08-01, 03:48:04,VALID,915.228,VALID,0,VALID,85.7329,VALID,0,VALID,19.9173,VALID,17,VALID,0,
2013-08-01, 03:49:04,VALID,915.19,VALID,0,VALID,85.6643,VALID,0,VALID,19.8588,VALID,25,VALID,0,
2013-08-01, 03:50:04,VALID,915.221,VALID,0,VALID,85.6643,VALID,0,VALID,19.8588,VALID,30,VALID,0,
2013-08-01, 03:51:04,VALID,915.235,VALID,0,VALID,85.6262,VALID,0,VALID,19.8198,VALID,27,VALID,0,
2013-08-01, 03:52:04,VALID,915.279,VALID,0,VALID,85.3594,VALID,0,VALID,19.8213,VALID,29,VALID,0,
2013-08-01, 03:53:04,VALID,915.28,VALID,0,VALID,85.1459,VALID,0,VALID,19.8408,VALID,28,VALID,0,
2013-08-01, 03:54:04,VALID,915.288,VALID,0,VALID,85.1993,VALID,0,VALID,19.8393,VALID,24,VALID,0,
2013-08-01, 03:55:04,VALID,915.299,VALID,0,VALID,85.1459,VALID,0,VALID,19.8588,VALID,1,VALID,0,
2013-08-01, 03:56:04,VALID,915.297,VALID,0,VALID,84.9858,VALID,0,VALID,19.8783,VALID,13,VALID,0,
2013-08-01, 03:57:04,VALID,915.277,VALID,0,VALID,85.1231,VALID,0,VALID,19.8768,VALID,22,VALID,0,
2013-08-01, 03:58:04,VALID,915.246,VALID,0,VALID,84.902,VALID,0,VALID,19.8978,VALID,5,VALID,0,
2013-08-01, 03:59:04,VALID,915.239,VALID,0,VALID,84.8181,VALID,0,VALID,19.8978,VALID,13,VALID,0,